Weather History for EHTW - August, 2014

Change the Weather History Date:

Thursday, August 28, 2014

  Actual Average Record
Temperature  
Mean Temperature 60 °F -  
Max Temperature 73 °F 67 °F 77 °F (2002)
Min Temperature 47 °F 51 °F 46 °F (2001)
Degree Days  
Heating Degree Days 5    
Growing Degree Days 10 (Base 50)    
Moisture  
Dew Point 54 °F    
Average Humidity 73    
Maximum Humidity 100    
Minimum Humidity 51    
Precipitation  
Precipitation 0.08 in - - ()
Sea Level Pressure  
Sea Level Pressure 29.98 in    
Wind  
Wind Speed 4 mph ()    
Max Wind Speed 11 mph    
Max Gust Speed -    
Visibility 12.3 miles    
Events Fog , Rain    
Averages and records for this station are not official NWS values.
T = Trace of Precipitation, MM = Missing Value Source: Averaged Metar Reports

Daily Weather History Graph

Daily Weather History Graph

Search for Another Location

Airport or City:

Trip Planner

Search our weather history database for the weather conditions in past years. The results will help you decide how hot, cold, wet, or windy it might be!

Date:

Astronomy

Aug. 28, 2014 Rise Set
Actual Time 6:36 AM CEST 8:29 PM CEST
Civil Twilight 6:00 AM CEST 9:05 PM CEST
Nautical Twilight 5:15 AM CEST 9:50 PM CEST
Astronomical Twilight 4:24 AM CEST 10:40 PM CEST
Moon 9:39 AM CEST (8/28) 9:16 PM CEST (8/28)
Length of Visible Light 15h 04m
Length of Day
13h 52m
Waxing Crescent, 7% of the Moon is Illuminated
Aug 28
Waxing Crescent
Sep 2
First Quarter
Sep 9
Full
Sep 16
Last Quarter
Sep 24
New

Hourly Weather History & Observations

Time (CEST) Temp. Dew Point Humidity Pressure Visibility Wind Dir Wind Speed Gust Speed Precip Events Conditions
12:00 AM 50 °F 49 °F 97% 30.04 in 3 mi Calm Calm - -   Mist
1:00 AM 48 °F 48 °F 100% 30.04 in 2 mi ESE 2.2 mph - - Fog Fog
2:00 AM 50 °F 49 °F 95% 30.03 in 2 mi SE 2.2 mph - -   Mist
3:00 AM 52 °F 48 °F 83% 30.01 in 13 mi SE 2.2 mph - -  
4:00 AM 53 °F 48 °F 77% 30.01 in 13 mi SE 4.5 mph - -  
5:00 AM 52 °F 48 °F 81% 30.00 in 12 mi ESE 4.5 mph - -  
6:00 AM 52 °F 48 °F 82% 30.00 in 10 mi SE 4.5 mph - -   Partly Cloudy
7:00 AM 51 °F 48 °F 87% 30.00 in 7 mi ESE 4.5 mph - -   Scattered Clouds
8:00 AM 55 °F 50 °F 78% 30.00 in 11 mi SE 4.5 mph - -   Partly Cloudy
9:00 AM 58 °F 52 °F 76% 30.01 in 11 mi SE 4.5 mph - -   Mostly Cloudy
10:00 AM 61 °F 55 °F 73% 30.00 in 14 mi SE 4.5 mph - -   Mostly Cloudy
11:00 AM 65 °F 58 °F 70% 29.99 in 11 mi South 4.5 mph - -   Scattered Clouds
12:00 PM 69 °F 59 °F 63% 29.98 in 16 mi South 6.7 mph - -   Partly Cloudy
1:00 PM 70 °F 59 °F 59% 29.97 in 17 mi SSE 6.7 mph - -   Partly Cloudy
2:00 PM 71 °F 58 °F 56% 29.96 in 16 mi South 8.9 mph - -   Partly Cloudy
3:00 PM 72 °F 58 °F 52% 29.96 in 19 mi SSW 11.2 mph - -   Scattered Clouds
4:00 PM 71 °F 57 °F 51% 29.95 in 25 mi SSW 11.2 mph - -   Overcast
5:00 PM 71 °F 58 °F 54% 29.94 in 19 mi South 6.7 mph - - Rain Rain
6:00 PM 71 °F 59 °F 57% 29.94 in 25 mi SSW 6.7 mph - -   Partly Cloudy
7:00 PM 70 °F 59 °F 60% 29.93 in 28 mi South 8.9 mph - -   Overcast
8:00 PM 68 °F 59 °F 67% 29.92 in 25 mi South 6.7 mph - -   Partly Cloudy
9:00 PM 66 °F 60 °F 74% 29.93 in 22 mi SE 4.5 mph - -   Scattered Clouds
10:00 PM 64 °F 60 °F 82% 29.93 in 18 mi SSE 4.5 mph - -   Scattered Clouds
11:00 PM 65 °F 60 °F 78% 29.92 in 19 mi SSE 4.5 mph - -   Mostly Cloudy